Regional Weather Roundup
Issued by NWS Charleston, WV

Home | Current Version | Previous Version | Graphics & Text | Print | Product List | Glossary On
Versions: 1 2 3 4 5 6 7 8 9 10 11 12 13 14 15 16 17 18 19 20 21 22 23 24 25 26 27 28
000
ASUS41 KRLX 220910
RWRRLX
West Virginia Regional Weather Roundup
National Weather Service Charleston WV
400 AM EST THU FEB 22 2018

Note: "fair" indicates few or no clouds below 12,000 feet with no
significant weather and/or obstructions to visibility.

WVZ003-221000-
Northern Panhandle of West Virginia

CITY           SKY/WX    TMP DP  RH WIND       PRES   REMARKS
WHEELING       CLOUDY    38  35  89 NE12      30.44F FOG
$$

WVZ009-221000-
Northwest West Virginia

CITY           SKY/WX    TMP DP  RH WIND       PRES   REMARKS
PARKERSBURG    LGT RAIN  42  41  96 N7        30.41S
$$

WVZ006-221000-
Western West Virginia

CITY           SKY/WX    TMP DP  RH WIND       PRES   REMARKS
HUNTINGTON     CLOUDY    46  44  93 NE6       30.32F FOG
$$

WVZ015-221000-
West Central West Virginia

CITY           SKY/WX    TMP DP  RH WIND       PRES   REMARKS
CHARLESTON     FOG       49  49 100 N3        30.31F VSB 1/2
$$

WVZ022-031-221000-
North Central West Virginia

CITY           SKY/WX    TMP DP  RH WIND       PRES   REMARKS
CLARKSBURG     CLOUDY    45  42  89 N7        30.37F
MORGANTOWN     CLOUDY    43  41  93 NE9       30.40F
$$

WVZ025-035-042-045-221000-
Southern West Virginia

CITY           SKY/WX    TMP DP  RH WIND       PRES   REMARKS
BECKLEY        FAIR      59  55  87 SE9       30.34F
LOGAN          FOG       54  54 100 CALM      30.30F VSB<1/4
BLUEFIELD      FAIR      61  53  75 CALM      30.37F
LEWISBURG      FOG       50  49  99 CALM      30.38S VSB 1/4
$$

WVZ047-221000-
Northern Mountains of West Virginia

CITY           SKY/WX    TMP DP  RH WIND       PRES   REMARKS
ELKINS         FOG       52  52 100 CALM      30.35F VSB 1/4
$$

WVZ052-221000-
Eastern Panhandle of West Virginia

CITY           SKY/WX    TMP DP  RH WIND       PRES   REMARKS
MARTINSBURG    CLOUDY    51  46  83 N9        30.43F
PETERSBURG     CLOUDY    53  51  95 N5        30.42S FOG
$$




USA.gov is the U.S. government's official web portal to all federal, state and local government web resources and services.